Погода в Зарубино

Россия / Новгородская область     58°44′10″N   33°28′23″E
темп.,
°C
ветер,
м/с
пор.,
м/с
влажн.,
%
обл.,
%
осадки,
мм/ч
давл.,
гПа
погр.,
м
14 августа, вс
вс1400:00+16св1179100 0.0 102111
03:00+16в1183100 0.0 102111
06:00+15в118650 0.0 102111
09:00+22вюв11635 0.0 1021337
12:00+26ю12473 0.0 10211446
15:00+28ююз11400 0.0 10201919
18:00+26всв01494 0.0 1019267
21:00+20всв22670 0.0 102012
15 августа, пн
пн1500:00+18вюв22730 0.0 102011
03:00+16юв22790 0.0 102124
06:00+16вюв23800 0.0 102150
09:00+23юв24590 0.0 1021327
12:00+27юв35443 0.0 10211625
15:00+29ююв353524 0.0 10202457
18:00+26юв374743 0.0 1019516
21:00+21вюв386345 0.0 1020193
16 августа, вт
вт1600:00+18вюв38775 0.0 1021148
03:00+18вюв29765 0.0 1021206
06:00+18юв388235 0.3 1021220
09:00+21юв386716 0.4 1021345
12:00+27юв474111 0.0 10201388
15:00+28юв4640100 0.0 10201520
18:00+26юв3748100 0.0 1019495
21:00+22вюв3106194 0.0 1020255
17 августа, ср
ср1700:00+20юв297087 0.1 1020203
03:00+19юв2473100 0.1 102098
06:00+18вюв2576100 0.0 1020110
09:00+19вюв267189 0.0 1020174
12:00+26юв2446100 0.0 1020962
15:00+26ю244992 0.0 10191235
18:00+25всв245456 0.0 1019209
21:00+20в396898 0.0 1019196
18 августа, чт
чт1800:00+18в2569100 0.0 1020101
03:00+17в2570100 0.0 102090
06:00+17в267378 0.0 1020136
09:00+21вюв3663100 0.0 1020329
12:00+26юв454878 0.0 1020844
15:00+28юв344290 0.0 10201382
18:00+26юв2553100 0.0 1020186
21:00+21вюв26735 0.0 102098